Погода в Некрасовке

Россия / Омская область     54°53′16″N   74°07′55″E
темп.,
°C
ветер,
м/с
пор.,
м/с
влажн.,
%
обл.,
%
осадки,
мм/ч
давл.,
гПа
погр.,
м
22 апреля, чт
чт2200:00−2ссв49690 0.0 1035599
03:00−2ссв47735 0.0 1038449
06:00−3св37775 0.0 1040347
09:000всв46545 0.0 1042745
12:00+4всв34405 0.0 10441297
15:00+5в33350 0.0 10441469
18:00+6в33352 0.0 10441488
21:00+3вюв345199 0.0 104549
23 апреля, пт
пт2300:00+1юв36645 0.0 1045109
03:000ююв35660 0.0 104687
06:00−1юв36650 0.0 1046120
09:00+3ююв45483 0.0 1046646
12:00+6ююв44382 0.0 10451239
15:00+8ююв44330 0.0 10431436
18:00+8ююв44330 0.0 10421389
21:00+5ююв35490 0.0 104272
24 апреля, сб
сб2400:00+3ююв366032 0.0 104199
03:00+1ююв36695 0.0 1040101
06:000ююв3569100 0.0 103988
09:00+5ююв464926 0.0 1038465
12:00+8ю453690 0.0 10371433
15:00+10ю4531100 0.0 10341710
18:00+10ююв4530100 0.0 10331582
21:00+7юв3746100 0.0 1032151
25 апреля, вс
вс2500:00+6ююв4952100 0.0 1031208
03:00+5юв41058100 0.0 1030238
06:00+4юв41158100 0.0 1029285
09:00+6ююв61147100 0.0 1029548
12:00+10ююв7935100 0.0 10271226
15:00+11ююв7930100 0.0 10251477
18:00+11ююв6835100 0.0 10241399
21:00+8вюв51243100 0.0 1023353
26 апреля, пн
пн2600:00+7юв61447100 0.0 1022400
03:00+6юв5115198 0.0 1021294
06:00+4вюв496098 0.0 1021183
09:00+9ююв610435 0.0 1020428
12:00+14ю6732100 0.0 1020967
15:00+16зюз5736100 0.0 10201760
18:00+16зсз6636100 0.0 10212076
21:00+12з3444100 0.0 102246